www.pogodaiklimat.ru

Погода и климат >> Архив погоды >> Аргентина >> Villa Reynolds


ПОГОДА в Villa Reynolds

  • Прогноз погоды в Villa Reynolds
  • Монитор погоды в Villa Reynolds
  • Климат города

АРХИВ ПОГОДЫ в Villa Reynolds

Время (UTC), дата Ветер
(напр.,м/с)
 
Видим.   Явления Облачность Т
(С)
Тd
(С)
f
(%)
Тe
(С)
Тes
(С)
Комфортность P
(гПа)
Po
(гПа)
Тmin
(С)
Tmax
(С)
R
(мм)
R24
(мм)
S
(см)
00 18.05 СВ 3 10 км 10/10 600 м
[Sc]
+14.1 +12.3 89 +13 +13 1010.9 954.1 +9.5 +18.6
03 18.05 СВ 5 10 км 10/6 600 м
[Sc As op]
+13.4 +12.7 96 +11 +11 1009.6 953.4
06 18.05 штиль 0 10 км 10/4 600 м
[Sc As op]
+13.8 +12.4 91 +13 +13 1008.6 952.6
09 18.05 Ю 10 10 км зарница 10/4 450 м
[Cb cap As op]
+11.0 +10.2 95 +7 +7 1010.1 953.6
12 18.05 ЮВ 3 10 км 9/5 300 м
[Cb cap As op]
+10.8 +9.6 92 +9 +9 1011.0 954.2 +9.4 +14.3
15 18.05 ЮЗ 4 3000 м слабая морось 10/6 150 м
[St As op]
+10.8 +10.0 95 +8 +8 1013.0 956.1
18 18.05 Ю 5 8000 м {морось} 10/5 210 м
[St As op]
+11.2 +9.3 88 +8 +9 1012.4 955.6 0.5
21 18.05 ЮЗ 4 10 км 10/6 300 м
[St As op]
+10.4 +7.6 83 +8 +8 1012.9 955.7
00 19.05 ЮЗ 5 10 км 10/10 300 м
[St]
+9.8 +7.8 87 +7 +7 1014.1 956.8 +9.6 +11.4
03 19.05 ЮЗ 8 10 км 10/10 300 м
[St]
+8.9 +6.6 85 +5 +5 1014.1 956.6
06 19.05 ЮЗ 9 10 км 10/10 300 м
[St]
+7.6 +4.7 82 +2 +2 1012.8 955.4
09 19.05 ЮЗ 5 5000 м морось 10/10 240 м
[St]
+5.8 +5.4 97 +1 +1 1012.7 955.0
12 19.05 З 8 3000 м слабый дождь {морось} туман 10/10 240 м
[St]
+5.7 +5.7 100 -0 -0 1013.2 955.4 +5.5 +9.9 4
15 19.05 ЮЗ 9 2500 м слабый дождь туман 10/10 200 м
[St]
+7.6 +7.6 100 +2 +2 1014.0 956.2
18 19.05 ЮЗ 7 10 км {дождь} 10/10 240 м
[St]
+9.2 +8.8 97 +5 +5 1013.0 955.4 20
21 19.05 ЮЗ 10 10 км слабая морось 9/6 300 м
[St Ac As]
+9.2 +7.6 90 +4 +4 1012.8 955.0
00 20.05 З 4 10 км {морось} 9/6 210 м
[St Ac As]
+8.2 +5.6 84 +5 +5 1013.2 955.3 +5.7 +9.7 2
03 20.05 З 5 10 км 6/0
[Ac As Ci sp]
+6.8 +4.1 83 +3 +3 1012.7 954.9
06 20.05 ЮЗ 8 10 км 10/0
[Ac As Ci sp]
+8.8 +4.9 76 +5 +5 1012.0 954.6
09 20.05 ЮЗ 8 8000 м слабая морось 10/8 450 м
[St Ac As]
+9.0 +6.9 87 +5 +5 1013.6 956.1
12 20.05 ЮЗ 5 10 км в посл. час морось 10/8 450 м
[St Ac As]
+7.0 +6.1 94 +3 +3 1014.7 956.8 +5.8 +9.3 1
15 20.05 ЮЗ 5 8000 м слабая морось 10/4 360 м
[St As op]
+10.0 +2.8 61 +7 +8 1015.6 957.8
18 20.05 Ю 8 8000 м слабая морось 10/5 540 м
[Sc As op]
+13.2 +1.8 46 +11 +11 1013.1 956.0 0.2
21 20.05 ЮЗ 4 10 км {морось} 9/3 750 м
[Sc Ac As Cs]
+13.6 +3.5 50 +12 +12 1012.7 955.7
00 21.05 З 6 10 км {морось} ясно +8.5 +2.3 65 +5 +5 1013.8 956.0 +6.9 +13.7 0.0
03 21.05 З 4 10 км ясно +7.6 +0.3 60 +5 +5 1013.9 956.2
06 21.05 З 4 10 км ясно +7.9 +0.7 60 +5 +5 1013.2 956.0
09 21.05 штиль 0 10 км 3/0
[Ac und]
+8.6 +0.4 56 +8 +8 1011.9 954.9
12 21.05 штиль 0 10 км 1/0
[Ac und]
+4.0 -0.1 75 +3 +4 1013.8 955.7 +3.8 +8.6 0.2
15 21.05 штиль 0 15 км ясно +19.2 +7.4 46 +20 +28 1012.4 955.8
18 21.05 С 6 15 км 8/0
[Cs]
+23.5 +6.6 34 +24 +26 комфорт 1009.9 953.8
21 21.05 С 3 15 км 9/0
[Ac As Cs]
+18.6 +8.1 50 +19 +19 1010.4 953.8
00 22.05 штиль 0 15 км 9/0
[Ac As Cs]
+11.0 +6.5 74 +10 +10 1013.0 955.2 +3.8 +24.1
03 22.05 штиль 0 15 км 6/0
[Cs]
+7.5 +5.6 88 +7 +7 1012.1 955.4
06 22.05 штиль 0 10 км ясно +5.5 +3.2 85 +5 +5 1012.1 955.7
09 22.05 СЗ 4 10 км 4/0
[Cs]
+8.7 +4.3 74 +6 +6 1011.8 955.3
12 22.05 З 3 10 км 6/0
[Ac As Cs]
+7.5 +2.7 72 +5 +5 1013.6 956.1 +4.9 +11.0
15 22.05 штиль 0 15 км 6/0
[Ac As Cs]
+18.0 +10.8 63 +18 +25 1013.5 956.6
18 22.05 СВ 3 15 км 10/5 600 м
[Sc Ac As Cs]
+20.8 +12.2 58 +24 +25 комфорт 1011.9 955.3
21 22.05 В 2 15 км 10/8 600 м
[Sc Ac As]
+17.4 +11.3 67 +18 +18 1012.7 956.0
00 23.05 ЮВ 3 15 км 8/4 600 м
[Sc Ac As]
+14.6 +11.0 79 +14 +14 1015.1 957.8 +7.5 +21.3
03 23.05 ЮВ 3 15 км 6/4 600 м
[Sc Ac As]
+11.8 +9.3 85 +10 +10 1015.8 959.3
06 23.05 штиль 0 10 км 5/0
[Ac As]
+9.7 +7.9 89 +9 +9 1015.3 958.9
09 23.05 Ю 3 10 км 8/3 750 м
[Sc Ac As]
+8.4 +5.9 84 +6 +6 1015.3 958.4
12 23.05 ЮЗ 3 10 км 6/4 600 м
[Sc Ac As]
+6.4 +3.7 83 +4 +4 1016.7 959.3 +6.0 +14.6
15 23.05 ЮЗ 3 10 км 9/6 300 м
[St Ac As]
+11.4 +6.5 72 +10 +11 1016.7 959.4
18 23.05 ЮЗ 3 10 км 10/4 600 м
[Sc Ac As]
+14.4 +8.7 69 +14 +15 1014.2 957.2
21 23.05 Ю 3 10 км 10/10 300 м
[St]
+12.0 +8.5 79 +11 +11 1015.1 957.7
00 24.05 Ю 1 10 км 10/10 300 м
[St]
+9.8 +7.8 87 +9 +9 1016.3 958.4 +6.4 +14.8
03 24.05 штиль 0 10 км 10/10 300 м
[St]
+9.2 +7.6 90 +8 +8 1015.5 958.1
06 24.05 штиль 0 10 км 10/10 300 м
[St]
+8.0 +6.7 91 +7 +7 1015.8 958.6
09 24.05 штиль 0 10 км 10/10 300 м
[St]
+8.8 +8.0 95 +8 +8 1014.6 957.3
12 24.05 штиль 0 10 км 10/10 240 м
[St]
+9.2 +8.4 95 +8 +8 1015.9 958.2 +7.6 +9.8
15 24.05 штиль 0 6000 м дымка 10/10 210 м
[St]
+11.0 +9.3 89 +10 +10 1015.8 958.4
18 24.05 ЮВ 3 2000 м слабая морось 10/10 180 м
[St]
+11.4 +9.9 90 +10 +10 1013.7 956.2 0.0

 

Местоположение метеостанции Villa Reynolds (Аргентина): широта -33.73 долгота -65.38 высота над уровнем моря 486 м.

В архиве по умолчанию представлена погода в Villa Reynolds за последнюю неделю. Архивные данные за месяц целиком и за предыдущие месяцы, начиная с января 2011 года, Вы можете получить, выбрав интересующий диапазон дат из раскрывающегося списка и нажав кнопку "Ввод!".

Внимание! Время в таблицах - всемирное. Для получения местного времени необходимо прибавить поправку, которая в Villa Reynolds равна -3 ч.

Смотрите также архив погоды в соседних городах и на ближайших метеорологических станциях:

Погода в San Luis (Аргентина) (104 км)
Погода в Rio Cuarto (Аргентина) (125 км)
Погода в Laboulaye (Аргентина) (192 км)
Погода в Villa Dolores (Аргентина) (199 км)
Погода в General Pico (Аргентина) (265 км)
Погода в Pilar (Аргентина) (270 км)
Погода в San Martin (Аргентина) (290 км)
Погода в Cordoba (Аргентина) (291 км)
Погода в San Rafael (Аргентина) (294 км)
Погода в Marcos Juarez (Аргентина) (322 км)

Пояснения к столбцам:

Ветер - указаны скорость ветра в м/с - средняя за 10 мин, порывы в срок и между сроками (в фигурных скобках) и направление, откуда дует ветер: С - северный, СВ - северо-восточный, В - восточный, ЮВ - юго-восточный, Ю - южный, ЮЗ - юго-западный, З - западный, СЗ - северо-западный.
Видимость - горизонтальная дальность видимости в метрах или километрах. При видимости от 1 до 10 км при отсутствии осадков обычно наблюдается дымка, при ухудшении видимости до 1 км и менее - туман. В сухую погоду видимость может ухудшаться дымом, пылью или мглою.
Явления - указаны атмосферные явления, наблюдавшиеся в срок или в последний час перед сроком; фигурными скобками обозначены явления, наблюдавшиеся между сроками (за 1-3 часа до срока); квадратными скобками обозначены град или гололедные отложения с указанием их диаметра в мм.
Облачность - указаны через наклонную черту общая и нижняя облачность в баллах и высота нижней границы облаков в метрах; квадратными скобками обозначены формы облаков: Ci - перистые, Cs - перисто-слоистые, Cc - перисто-кучевые, Ac - высококучевые, As - высокослоистые, Sc - слоисто-кучевые, Ns - слоисто-дождевые, Cu - кучевые, Cb - кучево-дождевые. Подробнее классификацию облаков см. в Атласе облаков (PDF).
T - Температура воздуха - температура, измеренная на высоте 2 м над землей.
Td - Температура точки росы - температура, при понижении до которой содержащийся в воздухе водяной пар достигнет насыщения.
f - Относительная влажность воздуха - влажноcть воздуха, измеренная на высоте 2 м над землей.
Te - Эффективная температура - температура, которую ощущает одетый по сезону человек в тени. Характеристика душности погоды. При расчете учитывается влияние влажности воздуха и скорости ветра на теплоощущения человека.
Tes - Эффективная температура на солнце - температура, которую ощущает человек, с поправкой на солнечный нагрев. Характеристика знойности погоды. Зависит от высоты солнца над горизонтом, облачности и скорости ветра. Ночью, в пасмурную погоду, а также при ветре 12 м/с и более поправка равна нулю.
P - Атмосферное давление - приведенное к уровню моря атмосферное давление.
Po - Атмосферное давление - измеренное на уровне метеостанции атмосферное давление.
Tmin - Минимальная температура - минимум температуры воздуха на высоте 2 м над землей.
Tmax - Максимальная температура - максимум температуры воздуха на высоте 2 м над землей.
R - Количество осадков - Количество выпавших осадков за период времени, мм. При наведении курсора мыши на число - период времени, за который выпало указанное количество осадков.
R24 - Количество осадков - Количество выпавших осадков за 24 часа, мм.
S - Снежный покров - Высота снежного покрова, см. При наведении курсора мыши на число - состояние снежного покрова и степень покрытия местности в баллах.